CEB911 RPLL-RPVE

Flight info

Callsign CEB911
Flight time 0h 37m
Altitude 23000
Route VERDE2V VERDE W24 TAPER TAPER7A
Aircraft A320/M-SDE3FGHIRWY/LB1

Departure

Time 2026-05-09 03:56
Airport Ninoy Aquino International Airport (RPLL)

Arrival

Time 2026-05-09 04:33
Airport Godofredo P. Ramos Airport (RPVE)
Time Latitude Longitude Altitude Speed Heading
2026-05-09 03:42 14.52330 121.00839 69 ft 0 kts 45°
2026-05-09 03:49 14.52319 121.00828 61 ft 4 kts 44°
2026-05-09 03:49 14.52300 121.00809 61 ft 4 kts 43°
2026-05-09 03:49 14.52280 121.00790 62 ft 4 kts 39°
2026-05-09 03:50 14.52265 121.00779 62 ft 2 kts 22°
2026-05-09 03:50 14.52254 121.00775 64 ft 2 kts 351°
2026-05-09 03:50 14.52243 121.00779 67 ft 3 kts 318°
2026-05-09 03:50 14.52233 121.00788 65 ft 3 kts 315°
2026-05-09 03:51 14.52251 121.00770 67 ft 3 kts 315°
2026-05-09 03:51 14.52262 121.00759 67 ft 1 kts 315°
2026-05-09 03:51 14.52269 121.00752 67 ft 1 kts 315°
2026-05-09 03:51 14.52270 121.00751 66 ft 0 kts 315°
2026-05-09 03:53 14.52273 121.00748 69 ft 4 kts 315°
2026-05-09 03:53 14.52316 121.00703 62 ft 9 kts 314°
2026-05-09 03:53 14.52382 121.00635 65 ft 15 kts 315°
2026-05-09 03:53 14.52415 121.00601 69 ft 7 kts 315°
2026-05-09 03:54 14.52483 121.00528 64 ft 11 kts 303°
2026-05-09 03:54 14.52463 121.00467 66 ft 9 kts 225°
2026-05-09 03:54 14.52423 121.00425 67 ft 7 kts 226°
2026-05-09 03:54 14.52384 121.00392 65 ft 7 kts 196°
2026-05-09 03:55 14.52359 121.00405 65 ft 0 kts 136°
2026-05-09 03:55 14.52280 121.00487 65 ft 48 kts 134°
2026-05-09 03:55 14.51875 121.00905 61 ft 113 kts 135°
2026-05-09 03:56 14.51212 121.01587 284 ft 143 kts 136°
2026-05-09 03:56 14.50510 121.02306 939 ft 145 kts 136°
2026-05-09 03:56 14.49756 121.03048 1545 ft 154 kts 134°
2026-05-09 03:56 14.48970 121.03828 2069 ft 162 kts 132°
2026-05-09 03:57 14.48127 121.04718 2389 ft 184 kts 131°
2026-05-09 03:57 14.47183 121.05720 2705 ft 203 kts 131°
2026-05-09 03:57 14.46179 121.06778 3169 ft 211 kts 132°
2026-05-09 03:57 14.45089 121.07919 3446 ft 235 kts 132°
2026-05-09 03:58 14.43796 121.09083 3849 ft 260 kts 149°
2026-05-09 03:58 14.42002 121.09524 4542 ft 275 kts 182°
2026-05-09 03:58 14.40097 121.09146 5369 ft 280 kts 190°
2026-05-09 03:58 14.38196 121.08675 6213 ft 283 kts 191°
2026-05-09 03:59 14.36272 121.08191 7014 ft 285 kts 191°
2026-05-09 03:59 14.34336 121.07705 7815 ft 289 kts 191°
2026-05-09 03:59 14.32402 121.07222 8621 ft 291 kts 190°
2026-05-09 03:59 14.30424 121.06736 9446 ft 294 kts 190°
2026-05-09 04:00 14.28446 121.06164 10168 ft 299 kts 199°
2026-05-09 04:00 14.27173 121.05523 10600 ft 305 kts 208°
2026-05-09 04:00 14.24718 121.03835 10905 ft 336 kts 212°
2026-05-09 04:00 14.23417 121.02915 11076 ft 347 kts 212°
2026-05-09 04:01 14.21404 121.01481 11600 ft 356 kts 212°
2026-05-09 04:01 14.19356 121.00019 12222 ft 361 kts 212°
2026-05-09 04:01 14.17278 120.98540 12810 ft 365 kts 212°
2026-05-09 04:01 14.15172 120.97044 13413 ft 369 kts 212°
2026-05-09 04:02 14.13042 120.95537 13970 ft 373 kts 212°
2026-05-09 04:02 14.10890 120.94019 14500 ft 377 kts 212°
2026-05-09 04:02 14.08714 120.92485 15053 ft 379 kts 212°
2026-05-09 04:02 14.06384 120.91197 15570 ft 381 kts 199°
2026-05-09 04:03 14.03838 120.90476 16101 ft 380 kts 186°
2026-05-09 04:03 14.01196 120.90349 16641 ft 381 kts 173°
2026-05-09 04:03 13.98589 120.90810 17149 ft 382 kts 163°
2026-05-09 04:03 13.96005 120.91484 17674 ft 385 kts 163°
2026-05-09 04:04 13.93397 120.92159 18175 ft 388 kts 163°
2026-05-09 04:04 13.90801 120.92829 18606 ft 391 kts 164°
2026-05-09 04:04 13.88150 120.93509 19064 ft 394 kts 164°
2026-05-09 04:04 13.85480 120.94191 19506 ft 396 kts 164°
2026-05-09 04:05 13.82793 120.94876 19957 ft 399 kts 164°
2026-05-09 04:05 13.80089 120.95567 20379 ft 401 kts 164°
2026-05-09 04:05 13.77371 120.96262 20815 ft 404 kts 164°
2026-05-09 04:05 13.74639 120.96963 21241 ft 406 kts 165°
2026-05-09 04:06 13.71881 120.97669 21661 ft 409 kts 165°
2026-05-09 04:06 13.69112 120.98376 22076 ft 411 kts 165°
2026-05-09 04:06 13.66324 120.99089 22485 ft 414 kts 165°
2026-05-09 04:06 13.63517 120.99807 22832 ft 416 kts 165°
2026-05-09 04:07 13.60711 121.00525 22909 ft 412 kts 165°
2026-05-09 04:07 13.58039 121.01213 22896 ft 401 kts 167°
2026-05-09 04:07 13.55457 121.01890 22721 ft 364 kts 160°
2026-05-09 04:07 13.53321 121.03065 22701 ft 337 kts 145°
2026-05-09 04:08 13.51447 121.04427 22550 ft 323 kts 146°
2026-05-09 04:08 13.49607 121.05684 22301 ft 312 kts 146°
2026-05-09 04:08 13.47880 121.06930 22049 ft 303 kts 144°
2026-05-09 04:08 13.46210 121.08092 22127 ft 281 kts 148°
2026-05-09 04:09 13.44538 121.09070 21874 ft 274 kts 152°
2026-05-09 04:09 13.42845 121.10023 21386 ft 282 kts 150°
2026-05-09 04:09 13.41194 121.11043 21389 ft 272 kts 149°
2026-05-09 04:09 13.39527 121.11863 21670 ft 273 kts 153°
2026-05-09 04:10 13.37838 121.12799 21954 ft 278 kts 145°
2026-05-09 04:10 13.36252 121.13989 22184 ft 290 kts 142°
2026-05-09 04:10 13.34471 121.15068 22402 ft 303 kts 154°
2026-05-09 04:10 13.32510 121.15948 22707 ft 313 kts 156°
2026-05-09 04:11 13.30464 121.16833 22902 ft 326 kts 156°
2026-05-09 04:11 13.28317 121.17761 22938 ft 343 kts 156°
2026-05-09 04:11 13.26061 121.18742 22941 ft 360 kts 154°
2026-05-09 04:11 13.23936 121.20178 22943 ft 374 kts 134°
2026-05-09 04:12 13.22241 121.22269 22944 ft 388 kts 126°
2026-05-09 04:12 13.20613 121.24540 22942 ft 402 kts 125°
2026-05-09 04:12 13.18829 121.26738 22930 ft 410 kts 137°
2026-05-09 04:12 13.16448 121.28356 22941 ft 413 kts 153°
2026-05-09 04:13 13.13825 121.29580 22937 ft 414 kts 155°
2026-05-09 04:13 13.11188 121.30771 22937 ft 414 kts 155°
2026-05-09 04:13 13.08643 121.32076 22930 ft 405 kts 148°
2026-05-09 04:13 13.06270 121.33621 22937 ft 402 kts 144°
2026-05-09 04:14 13.04008 121.35301 22934 ft 401 kts 142°
2026-05-09 04:14 13.01784 121.37027 22934 ft 401 kts 142°
2026-05-09 04:14 12.99556 121.38742 22937 ft 401 kts 142°
2026-05-09 04:14 12.97302 121.40420 22936 ft 401 kts 143°
2026-05-09 04:15 12.95015 121.42060 22937 ft 401 kts 144°
2026-05-09 04:15 12.92716 121.43667 22936 ft 400 kts 144°
2026-05-09 04:15 12.90440 121.45238 22787 ft 395 kts 144°
2026-05-09 04:15 12.88160 121.46807 22525 ft 385 kts 144°
2026-05-09 04:16 12.85988 121.48308 22279 ft 379 kts 144°
2026-05-09 04:16 12.83813 121.49817 22027 ft 376 kts 144°
2026-05-09 04:16 12.81653 121.51324 21779 ft 375 kts 144°
2026-05-09 04:16 12.79504 121.52829 21532 ft 373 kts 144°
2026-05-09 04:17 12.77368 121.54324 21287 ft 371 kts 144°
2026-05-09 04:17 12.75235 121.55813 21046 ft 370 kts 144°
2026-05-09 04:17 12.73113 121.57295 20806 ft 369 kts 144°
2026-05-09 04:17 12.70996 121.58771 20569 ft 367 kts 144°
2026-05-09 04:18 12.68887 121.60242 20333 ft 366 kts 144°
2026-05-09 04:18 12.66788 121.61705 20101 ft 365 kts 144°
2026-05-09 04:18 12.64693 121.63166 19866 ft 363 kts 144°
2026-05-09 04:18 12.62619 121.64616 19506 ft 359 kts 143°
2026-05-09 04:19 12.60561 121.66054 19067 ft 358 kts 143°
2026-05-09 04:19 12.58503 121.67491 18623 ft 358 kts 143°
2026-05-09 04:19 12.56442 121.68926 18171 ft 358 kts 143°
2026-05-09 04:19 12.54379 121.70360 17689 ft 357 kts 143°
2026-05-09 04:20 12.52330 121.71785 17238 ft 355 kts 143°
2026-05-09 04:20 12.50293 121.73203 16805 ft 353 kts 143°
2026-05-09 04:20 12.48264 121.74616 16373 ft 352 kts 143°
2026-05-09 04:20 12.46248 121.76022 15948 ft 350 kts 143°
2026-05-09 04:21 12.44265 121.77405 15519 ft 349 kts 143°
2026-05-09 04:21 12.42261 121.78800 15099 ft 348 kts 144°
2026-05-09 04:21 12.38176 121.81415 14245 ft 348 kts 156°
2026-05-09 04:22 12.35840 121.82059 13815 ft 350 kts 171°
2026-05-09 04:22 12.33401 121.82041 13339 ft 353 kts 187°
2026-05-09 04:22 12.31001 121.81533 12882 ft 352 kts 190°
2026-05-09 04:22 12.28614 121.81007 12438 ft 350 kts 190°
2026-05-09 04:23 12.26233 121.80491 11994 ft 348 kts 189°
2026-05-09 04:23 12.23869 121.79984 11537 ft 346 kts 189°
2026-05-09 04:23 12.21513 121.79480 11085 ft 345 kts 189°
2026-05-09 04:23 12.19174 121.78979 10711 ft 341 kts 189°
2026-05-09 04:24 12.16856 121.78479 10283 ft 340 kts 189°
2026-05-09 04:24 12.14575 121.77984 10066 ft 326 kts 189°
2026-05-09 04:24 12.12433 121.77517 9858 ft 307 kts 189°
2026-05-09 04:24 12.10375 121.77069 9343 ft 300 kts 189°
2026-05-09 04:25 12.08347 121.76632 8728 ft 296 kts 189°
2026-05-09 04:25 12.06338 121.76202 8128 ft 294 kts 188°
2026-05-09 04:25 12.04376 121.75780 7535 ft 291 kts 188°
2026-05-09 04:25 12.02403 121.75351 6933 ft 288 kts 188°
2026-05-09 04:26 12.00449 121.74925 6334 ft 286 kts 188°
2026-05-09 04:26 11.98509 121.74503 5700 ft 284 kts 188°
2026-05-09 04:26 11.96606 121.74090 5356 ft 271 kts 188°
2026-05-09 04:26 11.94836 121.73703 5229 ft 251 kts 188°
2026-05-09 04:27 11.93148 121.73337 5105 ft 245 kts 187°
2026-05-09 04:27 11.91478 121.73213 5001 ft 240 kts 170°
2026-05-09 04:27 11.89877 121.73578 4874 ft 233 kts 153°
2026-05-09 04:27 11.88432 121.74295 4761 ft 230 kts 148°
2026-05-09 04:28 11.87006 121.75041 4630 ft 230 kts 148°
2026-05-09 04:28 11.85582 121.75781 4366 ft 229 kts 148°
2026-05-09 04:28 11.84331 121.76721 4043 ft 218 kts 119°
2026-05-09 04:28 11.83948 121.78123 3750 ft 203 kts 83°
2026-05-09 04:29 11.84484 121.79401 3473 ft 197 kts 54°
2026-05-09 04:29 11.85249 121.80526 3241 ft 189 kts 62°
2026-05-09 04:29 11.85827 121.81706 2944 ft 183 kts 66°
2026-05-09 04:29 11.86357 121.82870 2680 ft 178 kts 66°
2026-05-09 04:30 11.86878 121.84003 2426 ft 174 kts 66°
2026-05-09 04:30 11.87385 121.85078 2196 ft 164 kts 65°
2026-05-09 04:30 11.87860 121.86067 1990 ft 149 kts 64°
2026-05-09 04:30 11.88305 121.86984 1797 ft 140 kts 64°
2026-05-09 04:31 11.88736 121.87872 1606 ft 139 kts 64°
2026-05-09 04:31 11.89168 121.88754 1410 ft 141 kts 63°
2026-05-09 04:31 11.89604 121.89641 1235 ft 138 kts 64°
2026-05-09 04:31 11.90040 121.90522 1050 ft 139 kts 61°
2026-05-09 04:32 11.90472 121.91393 868 ft 136 kts 63°
2026-05-09 04:32 11.90884 121.92270 630 ft 137 kts 66°
2026-05-09 04:32 11.91304 121.93163 453 ft 140 kts 63°
2026-05-09 04:32 11.91766 121.94032 266 ft 138 kts 65°
2026-05-09 04:33 11.92205 121.94909 91 ft 139 kts 63°
2026-05-09 04:33 11.92619 121.95725 27 ft 102 kts 63°
2026-05-09 04:33 11.92819 121.96120 30 ft 39 kts 62°
2026-05-09 04:33 11.92922 121.96324 25 ft 26 kts 62°
2026-05-09 04:34 11.92971 121.96435 24 ft 12 kts 83°
2026-05-09 04:34 11.92912 121.96483 27 ft 10 kts 153°
2026-05-09 04:34 11.92857 121.96511 29 ft 8 kts 153°
2026-05-09 04:34 11.92797 121.96510 26 ft 9 kts 225°
2026-05-09 04:35 11.92763 121.96462 26 ft 7 kts 203°
2026-05-09 04:35 11.92727 121.96472 26 ft 4 kts 154°
2026-05-09 04:35 11.92725 121.96473 26 ft 0 kts 154°